User: anonymous   Login
Location: Claremont
(33.9858°S, 18.4575°E)
Time: 05:05:09
(UTC+00:00)
Language:

SL-8 Rocket - Orbit

View from above orbital plane
View from above orbital plane
View from above satellite
View from above satellite

Ground track
Ground track

The orbit data is extracted from the following two-line orbital elements,

1 21088U 91006B   21125.32944598  .00000046  00000-0  30767-4 0  9997
2 21088  82.9457  45.9107 0021613 312.7923 163.8582 13.77163059520510
Epoch (UTC): 05 May 2021 07:54:24
Eccentricity: 0.0021613
inclination: 82.9457°
perigee height: 958 km
apogee height: 990 km
right ascension of ascending node: 45.9107°
argument of perigee: 312.7923°
revolutions per day: 13.77163059
mean anomaly at epoch: 163.8582°
orbit number at epoch: 52051

The dashed part of the orbit path shows where the satellite is in the earth's shadow,  

DLR